Regional Weather Roundup
Issued by NWS Northern Indiana

Home | Current Version | Previous Version | Graphics & Text | Print | Product List | Glossary On
Versions: 1 2 3 4 5 6 7 8 9 10 11 12 13 14 15 16 17 18 19 20 21 22 23 24 25 26 27 28 29 30 31 32 33 34 35 36 37 38 39 40 41 42 43 44 45 46 47 48 49 50
000
ASUS43 KIWX 220800
RWRIWX

KIWX WEATHER ROUNDUP
NATIONAL WEATHER SERVICE NORTHERN INDIANA
300 AM EST SAT NOV 22 2014

NOTE: "FAIR" INDICATES FEW OR NO CLOUDS BELOW 12,000 FEET WITH NO
SIGNIFICANT WEATHER AND/OR OBSTRUCTIONS TO VISIBILITY.

* THESE STATIONS ARE NOT UNDER NWS QUALITY CONTROL. THEY ALSO MAY NOT
  REPORT WEATHER SUCH AS PRECIPITATION OR FOG.

INZ001>027-220900-
NORTHERN INDIANA

CITY           SKY/WX    TMP DP  RH WIND       PRES   REMARKS
GARY*          MIX PCPN  35  26  69 S10G18    30.15S WCI  27
SOUTH BEND     LGT RAIN  34  19  54 S13       30.18F WCI  25
GOSHEN         CLOUDY    33  17  51 S10       30.20F WCI  25
ANGOLA*        CLOUDY    25  16  68 S8        30.21F WCI  16
FORT WAYNE     CLOUDY    31  19  61 S13       30.25F WCI  21
PERU/GRISSOM   CLOUDY    33  23  66 S10       30.21F WCI  25

$$
INZ028>050-220900-
CENTRAL INDIANA

CITY           SKY/WX    TMP DP  RH WIND       PRES   REMARKS
LAFAYETTE      CLOUDY    32  26  78 S7        30.22S WCI  26
KOKOMO*        CLOUDY    32  21  64 S15       30.22F WCI  22
MUNCIE*        CLOUDY    34  17  50 S12       30.25F WCI  25
INDIANAPOLIS   FRZ DRZL  32  23  69 S8        30.26F WCI  25

$$
MIZ043>046-050>051-056>058-064>065-071>073-077>080-220900-
SOUTHWEST LOWER MICHIGAN

CITY           SKY/WX    TMP DP  RH WIND       PRES   REMARKS
BATTLE CREEK   CLOUDY    29  15  56 S13       30.17F WCI  19
BENTON HARBOR  MIX PCPN  32  18  56 S9        30.15F WCI  24
COLDWATER*     CLOUDY    30  15  55 S8        30.19F WCI  22
HILLSDALE*     CLOUDY    26  13  58 S10       30.20F WCI  16
HOLLAND        CLOUDY    32  17  54 S12       30.14F WCI  23
GRAND RAPIDS   CLOUDY    29  15  56 S9        30.15F WCI  20
KALAMAZOO      CLOUDY    29  17  61 S12       30.17F WCI  19
STURGIS*       CLOUDY    28  18  64 S12       30.18F WCI  18
THREE RIVERS*  CLOUDY    31  18  59 S9        30.18F WCI  23

$$
OHZ001>008-015>018-024>025-220900-
NORTHWEST OHIO

CITY           SKY/WX    TMP DP  RH WIND       PRES   REMARKS
DEFIANCE       CLOUDY    26  15  63 S7        30.26F WCI  18
FINDLAY        CLOUDY    26  15  63 S10       30.27F WCI  16
TOLEDO EXPRESS MOCLDY    21  11  65 S5        30.27F WCI  15
TOLEDO METCALF PTCLDY    23  12  62 S7        30.29F WCI  15
LIMA           CLOUDY    29  15  56 S14       30.27F WCI  18

$$
AND FOR LAKE MICHIGAN COASTAL AND OPEN LAKE BUOY OBSERVATIONS

STATION/POSITION TEMP    WIND        PRES    VSBY  WAVE
                 AIR SEA DIR/SP/G                  HT/PER
                 (F)     (DEG/KT/KT) (MB)    (MI)  (FT/S)
CALUMET HARBOR    36     180/ 14/ 20 1019.2F
MICHIGAN CITY     34     150/ 15/ 21   N/A
SAINT JOSEPH      32     160/  7/ 13 1022.0F
SOUTH LAKE BUOY   39 43  200/ 27/ 33 1020.8F         7/ 6

$$
&&


USA.gov is the U.S. government's official web portal to all federal, state and local government web resources and services.